Flag for Austria Weather past 2 weeks in Hartberg, Styria, Austria

30 °F


Feels Like: 30 °F
Forecast: 28 / 41 °F
Wind: 2 mph from Southeast

Location: Graz-Thalerhof-Flughafen

Current Time: Nov 25, 2015 at 8:28:38 PM

Latest Report: Nov 25, 2015 at 7:50 PM

Visibility: 10 mi

Pressure: 29.77 "Hg

Humidity: 86%

Dew point: 27 °F

Location of HartbergLocation

Historic Weather in Hartberg — Graph


Hartberg temperature yesterday

Maximum temperature yesterday: 39 °F (at 1:50 PM)
Minimum temperature yesterday: 23 °F (at 2:20 AM)
Average temperature yesterday: 31 °F

Past Weeks' High & Low Weather Summary

High72 °F (Nov 11, 12:50 PM)100% (Nov 11, 3:20 AM)30.39 "Hg (Nov 11, 3:20 AM)
Low19 °F (Nov 25, 4:20 AM)35% (Nov 16, 1:20 PM)29.33 "Hg (Nov 21, 12:20 AM)
Average43 °F85%30.02 "Hg
* Reported Nov 10 6:20 PM — Nov 25 6:50 PM, Hartberg, Weather by CustomWeather, © 2015

Note: Actual official high and low records may vary slightly from our data, if they occured in-between our weather recording intervals... More about our weather records


Hartberg weather history for previous 24 hours

Time TempWeatherWind HumidityBarometerVisibility
6:50 PM
Wed, Nov 25
32 °FClear.3 mph80%29.77 "Hg10 mi
6:20 PM30 °FClear.2 mph86%29.77 "Hg10 mi
5:50 PM32 °FClear.2 mph80%29.77 "Hg10 mi
5:20 PM32 °FClear.3 mph80%29.77 "Hg10 mi
4:50 PM32 °FClear.5 mph80%29.80 "Hg10 mi
4:20 PM32 °FPassing clouds.1 mph80%29.80 "HgN/A
3:50 PM32 °FPartly sunny.1 mph75%29.80 "HgN/A
3:20 PM32 °FPartly sunny.1 mph75%29.83 "HgN/A
2:50 PM32 °FPartly sunny.2 mph75%29.83 "HgN/A
2:20 PM34 °FPartly sunny.2 mph70%29.83 "HgN/A
1:50 PM34 °FPartly sunny.2 mph70%29.83 "HgN/A
1:20 PM34 °FPartly sunny.1 mph70%29.86 "HgN/A
12:50 PM32 °FPartly sunny.3 mph75%29.89 "HgN/A
12:20 PM32 °FPartly sunny.5 mph75%29.86 "HgN/A
11:50 AM32 °FPartly sunny.3 mph75%29.89 "HgN/A
11:20 AM32 °FBroken clouds.3 mph75%29.89 "HgN/A
10:50 AM30 °FPartly sunny.2 mph80%29.92 "HgN/A
10:20 AM28 °FSunny.2 mph86%29.92 "Hg10 mi
9:50 AM27 °FSunny.1 mph93%29.92 "Hg10 mi
9:20 AM27 °FPartly sunny.1 mph93%29.95 "Hg6 mi
8:50 AM25 °FPartly sunny.2 mph100%29.95 "Hg4 mi
7:50 AM21 °FIce fog.1 mph100%29.95 "Hg0 mi
6:50 AM19 °FIce fog.3 mph100%29.95 "Hg0 mi
6:20 AM19 °FIce fog.1 mph100%29.95 "Hg0 mi
5:50 AM19 °FIce fog.1 mph100%29.98 "Hg0 mi
5:20 AM21 °FIce fog.2 mph100%29.98 "Hg0 mi
4:50 AM19 °FCold.2 mph100%29.98 "Hg2 mi
4:20 AM19 °FIce fog.No wind100%30.01 "Hg1 mi
3:50 AM21 °FLight fog.1 mph93%30.01 "Hg1 mi
3:20 AM23 °FSnow. Overcast.2 mph93%30.01 "Hg4 mi
2:50 AM23 °FCold.1 mph93%30.04 "Hg3 mi
2:20 AM21 °FSnow. Overcast.1 mph93%30.04 "Hg5 mi
1:50 AM23 °FCold.1 mph93%30.07 "Hg4 mi
1:20 AM23 °FLight freezing rain. Overcast.2 mph100%30.07 "Hg3 mi
12:50 AM23 °FCold.3 mph93%30.07 "Hg5 mi
12:20 AM23 °FCold.2 mph93%30.09 "Hg5 mi
11:50 PM
Tue, Nov 24
23 °FCold.2 mph100%30.09 "Hg6 mi
10:50 PM25 °FPassing clouds.1 mph100%30.12 "Hg5 mi
10:20 PM27 °FPassing clouds.1 mph93%30.12 "Hg5 mi
9:50 PM27 °FPassing clouds.2 mph93%30.15 "Hg5 mi
9:20 PM28 °FPassing clouds.2 mph93%30.15 "HgN/A
8:50 PM28 °FPassing clouds.2 mph86%30.15 "HgN/A
8:20 PM28 °FPassing clouds.1 mph86%30.15 "HgN/A
Weather by CustomWeather, © 2015

See weather overviewHow to use our weather pages